Change the Weather History Date:

Thursday, January 24, 2013

  Actual Average (KHKY) Record (KHKY)
Temperature  
Mean Temperature 35 °F -  
Max Temperature 41 °F 49 °F 72 °F (1967)
Min Temperature 29 °F 30 °F 3 °F (1963)
Degree Days  
Heating Degree Days 30    
Moisture  
Dew Point 10 °F    
Average Humidity 35    
Maximum Humidity 68    
Minimum Humidity 26    
Precipitation  
Precipitation 0.00 in - - ()
Sea Level Pressure  
Sea Level Pressure 30.25 in    
Wind  
Wind Speed 10 mph (NNE)    
Max Wind Speed 18 mph    
Max Gust Speed 25 mph    
Visibility 10 miles    
Events      
Averages and records for this station are not official NWS values.
T = Trace of Precipitation, MM = Missing Value Source: NWS Daily Summary

Daily Weather History Graph

Daily Weather History Graph

Search for Another Location

Airport or City:

Trip Planner

Search our weather history database for the weather conditions in past years. The results will help you decide how hot, cold, wet, or windy it might be!

Date:

Astronomy

Jan. 24, 2013 Rise Set
Actual Time 7:29 AM EST 5:43 PM EST
Civil Twilight 7:01 AM EST 6:10 PM EST
Nautical Twilight 6:30 AM EST 6:41 PM EST
Astronomical Twilight 6:00 AM EST 7:11 PM EST
Moon 3:45 PM EST (1/24) 5:24 AM EST (1/24)
Length of Visible Light 11h 08m
Length of Day
10h 13m
Waxing Gibbous, 94% of the Moon is Illuminated
Jan 24
Waxing Gibbous
Jan 26
Full
Feb 3
Last Quarter
Feb 10
New
Feb 17
First Quarter

Hourly Weather History & Observations

Time (EST) Temp. Windchill Dew Point Humidity Pressure Visibility Wind Dir Wind Speed Gust Speed Precip Events Conditions
12:15 AM 33.6 °F - 22.8 °F 65% 30.02 in 10.0 mi Calm Calm - N/A   Clear
1:15 AM 34.9 °F 32.0 °F 25.3 °F 68% 29.98 in 10.0 mi SSW 3.5 mph - N/A   Clear
8:35 AM 39.0 °F 33.4 °F 18.0 °F 43% 30.09 in 10.0 mi WNW 8.1 mph - N/A   Clear
8:55 AM 39.9 °F 35.1 °F 14.5 °F 36% 30.11 in 10.0 mi NNW 6.9 mph - N/A   Clear
9:15 AM 41.2 °F 35.5 °F 18.7 °F 40% 30.14 in 10.0 mi NNE 9.2 mph - N/A   Clear
9:35 AM 39.2 °F 30.8 °F 19.9 °F 46% 30.15 in 10.0 mi NNE 15.0 mph - N/A   Clear
9:55 AM 39.2 °F 30.8 °F 16.7 °F 40% 30.17 in 10.0 mi North 15.0 mph 23.0 mph N/A   Clear
10:15 AM 39.2 °F 31.2 °F 15.8 °F 39% 30.19 in 10.0 mi North 13.8 mph 19.6 mph N/A   Clear
10:35 AM 39.2 °F 30.5 °F 14.2 °F 36% 30.20 in 10.0 mi North 16.1 mph 20.7 mph N/A   Clear
10:55 AM 39.4 °F 31.8 °F 12.9 °F 34% 30.21 in 10.0 mi North 12.7 mph 19.6 mph N/A   Clear
11:15 AM 39.6 °F 31.7 °F 11.7 °F 32% 30.23 in 10.0 mi North 13.8 mph 24.2 mph N/A   Clear
11:35 AM 39.9 °F 32.5 °F 12.4 °F 32% 30.24 in 10.0 mi North 12.7 mph - N/A   Clear
11:55 AM 39.4 °F 30.1 °F 9.1 °F 29% 30.25 in 10.0 mi North 18.4 mph 24.2 mph N/A   Clear
12:15 PM 40.3 °F 31.9 °F 8.4 °F 27% 30.25 in 10.0 mi North 16.1 mph 19.6 mph N/A   Clear
12:35 PM 40.1 °F 32.7 °F 7.3 °F 26% 30.26 in 10.0 mi NNW 12.7 mph 21.9 mph N/A   Clear
12:55 PM 39.4 °F 30.7 °F 9.1 °F 29% 30.26 in 10.0 mi NNE 16.1 mph 20.7 mph N/A   Clear
1:15 PM 38.1 °F 28.4 °F 9.1 °F 30% 30.28 in 10.0 mi NNE 18.4 mph 25.3 mph N/A   Clear
1:35 PM 37.2 °F 29.1 °F 8.2 °F 30% 30.28 in 10.0 mi NNE 12.7 mph 25.3 mph N/A   Clear
1:55 PM 37.2 °F 29.1 °F 8.2 °F 30% 30.29 in 10.0 mi NNE 12.7 mph 24.2 mph N/A   Clear
2:15 PM 36.3 °F 27.5 °F 7.7 °F 30% 30.28 in 10.0 mi NNE 13.8 mph 23.0 mph N/A   Clear
2:35 PM 36.1 °F 26.2 °F 7.5 °F 30% 30.30 in 10.0 mi NNE 17.3 mph 24.2 mph N/A   Clear
2:55 PM 35.2 °F 25.8 °F 6.8 °F 31% 30.31 in 10.0 mi NE 15.0 mph 23.0 mph N/A   Clear
3:15 PM 34.7 °F 24.3 °F 6.4 °F 31% 30.31 in 10.0 mi NE 17.3 mph 25.3 mph N/A   Clear
3:35 PM 33.8 °F 23.9 °F 5.7 °F 31% 30.33 in 10.0 mi North 15.0 mph 24.2 mph N/A   Clear
3:55 PM 33.8 °F 24.3 °F 5.7 °F 31% 30.34 in 10.0 mi NNE 13.8 mph 24.2 mph N/A   Clear
4:15 PM 33.6 °F 24.6 °F 5.5 °F 31% 30.35 in 10.0 mi NE 12.7 mph - N/A   Clear
4:35 PM 32.7 °F 21.8 °F 4.1 °F 30% 30.35 in 10.0 mi NNE 17.3 mph 21.9 mph N/A   Clear
4:55 PM 32.0 °F 23.0 °F 4.1 °F 31% 30.37 in 10.0 mi NNE 11.5 mph 19.6 mph N/A   Clear
5:15 PM 31.6 °F 20.7 °F 3.2 °F 30% 30.37 in 10.0 mi NNE 16.1 mph 21.9 mph N/A   Clear
5:35 PM 30.7 °F 21.4 °F 2.7 °F 30% 30.39 in 10.0 mi NE 11.5 mph 18.4 mph N/A   Clear
5:55 PM 29.8 °F 20.3 °F 2.3 °F 31% 30.40 in 10.0 mi NNE 11.5 mph 20.7 mph N/A   Clear
6:15 PM 29.3 °F 22.3 °F 2.5 °F 32% 30.40 in 10.0 mi NE 6.9 mph - N/A   Clear